timestamp,surface_pressure_avg,surface_temp_avg,battery_voltage,lat,long
2022-01-13 00:09:00+00:00,238.4681,3.2,12.57,47.84626,-54.09684
2022-01-13 00:19:00+00:00,231.4047,3.2,12.57,47.84626,-54.09684
2022-01-13 00:29:00+00:00,223.6615,3.2,12.57,47.84626,-54.09684
2022-01-13 00:39:00+00:00,223.3481,3.2,12.57,47.84626,-54.09684
2022-01-13 00:49:00+00:00,221.3081,3.2,12.57,47.84626,-54.09684
2022-01-13 00:59:00+00:00,215.4447,3.2,12.57,47.84626,-54.09684
2022-01-13 01:09:00+00:00,210.9532,3.2,12.57,47.84626,-54.09684
2022-01-13 01:19:00+00:00,212.1915,3.2,12.57,47.84626,-54.09684
2022-01-13 01:29:00+00:00,212.3197,3.22,12.57,47.84626,-54.09684
2022-01-13 01:39:00+00:00,208.1064,3.2,12.57,47.84626,-54.09684
2022-01-13 01:49:00+00:00,207.6264,3.2,12.57,47.84626,-54.09684
2022-01-13 01:59:00+00:00,212.7515,3.21,12.57,47.84626,-54.09684
2022-01-13 02:09:00+00:00,210.9131,3.28,12.57,47.84626,-54.09684
2022-01-13 02:19:00+00:00,207.9515,3.28,12.57,47.84626,-54.09684
2022-01-13 02:29:00+00:00,215.7064,3.29,12.57,47.84626,-54.09684
2022-01-13 02:39:00+00:00,221.7348,3.3,12.57,47.84626,-54.09684
2022-01-13 02:49:00+00:00,217.9465,3.3,12.57,47.84626,-54.09684
2022-01-13 02:59:00+00:00,212.0931,3.4,12.57,47.84626,-54.09684
2022-01-13 03:09:00+00:00,212.7981,3.43,12.57,47.84626,-54.09684
2022-01-13 03:19:01+00:00,214.2015,3.4,12.57,47.84626,-54.09684
2022-01-13 03:29:01+00:00,213.4348,3.3,12.57,47.84626,-54.09684
2022-01-13 03:39:01+00:00,215.4181,3.32,12.57,47.84626,-54.09684
2022-01-13 03:49:01+00:00,219.7531,3.34,12.57,47.84626,-54.09684
2022-01-13 03:59:01+00:00,224.9114,3.39,12.57,47.84626,-54.09684
2022-01-13 04:09:01+00:00,228.4598,3.4,12.57,47.84626,-54.09684
2022-01-13 04:19:00+00:00,234.1114,3.4,12.57,47.84626,-54.09684
2022-01-13 04:29:00+00:00,240.8164,3.4,12.57,47.84626,-54.09684
2022-01-13 04:39:00+00:00,244.1731,3.41,12.57,47.84626,-54.09684
2022-01-13 04:49:00+00:00,244.4031,3.5,12.57,47.84626,-54.09684
2022-01-13 04:59:00+00:00,245.9464,3.43,12.57,47.84626,-54.09684
2022-01-13 05:09:00+00:00,250.2247,3.4,12.57,47.84626,-54.09684
2022-01-13 05:19:00+00:00,256.0098,3.4,12.49,47.84626,-54.09684
2022-01-13 05:29:00+00:00,262.6348,3.47,12.49,47.84626,-54.09684
2022-01-13 05:39:00+00:00,273.7114,3.49,12.49,47.84626,-54.09684
2022-01-13 05:49:00+00:00,281.993,3.47,12.49,47.84626,-54.09684
2022-01-13 05:59:00+00:00,286.8497,3.5,12.49,47.84626,-54.09684
2022-01-13 06:09:00+00:00,290.6913,3.5,12.49,47.84626,-54.09684
2022-01-13 06:19:00+00:00,297.8297,3.5,12.49,47.84626,-54.09684
2022-01-13 06:29:00+00:00,301.2697,3.5,12.49,47.84626,-54.09684
2022-01-13 06:39:00+00:00,303.4497,3.49,12.49,47.84626,-54.09684
2022-01-13 06:49:00+00:00,307.308,3.46,12.49,47.84626,-54.09684
2022-01-13 06:59:00+00:00,310.9429,3.43,12.49,47.84626,-54.09684
2022-01-13 07:09:00+00:00,312.7047,3.48,12.49,47.84626,-54.09684
2022-01-13 07:19:01+00:00,313.8247,3.49,12.49,47.84626,-54.09684
2022-01-13 07:29:01+00:00,317.70799999999997,3.46,12.49,47.84626,-54.09684
2022-01-13 07:39:01+00:00,320.348,3.46,12.49,47.84626,-54.09684
2022-01-13 07:49:01+00:00,322.483,3.48,12.49,47.84626,-54.09684
2022-01-13 07:59:01+00:00,324.6714,3.49,12.49,47.84626,-54.09684
2022-01-13 08:09:01+00:00,322.9413,3.5,12.49,47.84626,-54.09684
2022-01-13 08:19:00+00:00,319.7863,3.5,12.49,47.84626,-54.09684
2022-01-13 08:29:00+00:00,319.473,3.5,12.49,47.84626,-54.09684
2022-01-13 08:39:00+00:00,325.4429,3.5,12.49,47.84626,-54.09684
2022-01-13 08:49:00+00:00,326.7463,3.5,12.49,47.84626,-54.09684
2022-01-13 08:59:00+00:00,323.773,3.5,12.49,47.84626,-54.09684
2022-01-13 09:09:00+00:00,320.9897,3.49,12.49,47.84626,-54.09684
2022-01-13 09:19:00+00:00,321.0746,3.45,12.49,47.84626,-54.09684
2022-01-13 09:29:00+00:00,323.2681,3.44,12.49,47.84626,-54.09684
2022-01-13 09:39:00+00:00,321.8912,3.4,12.49,47.84626,-54.09684
2022-01-13 09:49:00+00:00,315.988,3.4,12.49,47.84626,-54.09684
2022-01-13 09:59:00+00:00,311.173,3.3,12.49,47.84626,-54.09684
2022-01-13 10:09:00+00:00,309.873,3.3,12.49,47.84626,-54.09684
2022-01-13 10:19:00+00:00,306.0596,3.2,12.49,47.84626,-54.09684
2022-01-13 10:29:00+00:00,304.3481,3.2,12.49,47.84626,-54.09684
2022-01-13 10:39:00+00:00,304.9297,3.2,12.49,47.84626,-54.09684
2022-01-13 10:49:00+00:00,303.3713,3.2,12.49,47.84626,-54.09684
2022-01-13 10:59:00+00:00,301.5281,3.2,12.49,47.84626,-54.09684
2022-01-13 11:09:00+00:00,298.7214,3.2,12.49,47.84626,-54.09684
2022-01-13 11:19:00+00:00,293.6563,3.2,12.49,47.84626,-54.09684
2022-01-13 11:29:00+00:00,287.263,3.2,12.49,47.84626,-54.09684
2022-01-13 11:39:00+00:00,283.8931,3.2,12.49,47.84626,-54.09684
2022-01-13 11:49:00+00:00,277.0764,3.3,12.49,47.84626,-54.09684
2022-01-13 11:59:00+00:00,271.0881,3.35,12.49,47.84626,-54.09684
2022-01-13 12:09:00+00:00,266.9097,3.34,12.49,47.84626,-54.09684
2022-01-13 12:19:00+00:00,262.7114,3.37,12.49,47.84626,-54.09684
2022-01-13 12:29:00+00:00,257.3631,3.4,12.49,47.84626,-54.09684
2022-01-13 12:39:00+00:00,256.1397,3.4,12.49,47.84626,-54.09684
2022-01-13 12:49:00+00:00,256.6531,3.3,12.49,47.84626,-54.09684
2022-01-13 12:59:00+00:00,249.5364,3.32,12.49,47.84626,-54.09684
2022-01-13 13:09:00+00:00,242.0414,3.38,12.49,47.84626,-54.09684
2022-01-13 13:19:00+00:00,238.0014,3.3,12.57,47.84626,-54.09684
2022-01-13 13:29:00+00:00,238.0431,3.3,12.57,47.84626,-54.09684
2022-01-13 13:39:00+00:00,234.1031,3.3,12.57,47.84626,-54.09684
2022-01-13 13:49:00+00:00,234.6648,3.3,12.57,47.84626,-54.09684
2022-01-13 13:59:00+00:00,238.1131,3.3,12.57,47.84626,-54.09684
2022-01-13 14:09:00+00:00,235.3881,3.3,12.57,47.84626,-54.09684
2022-01-13 14:19:00+00:00,230.3598,3.31,12.57,47.84626,-54.09684
2022-01-13 14:29:00+00:00,232.7881,3.3,12.57,47.84626,-54.09684
2022-01-13 14:39:00+00:00,233.1331,3.3,12.57,47.84626,-54.09684
2022-01-13 14:49:00+00:00,232.1764,3.3,12.57,47.84626,-54.09684
2022-01-13 14:59:00+00:00,236.5031,3.3,12.57,47.84626,-54.09684
2022-01-13 15:09:00+00:00,237.9598,3.3,12.57,47.84626,-54.09684
2022-01-13 15:19:00+00:00,231.5681,3.32,12.65,47.84626,-54.09684
2022-01-13 15:29:00+00:00,228.2498,3.38,12.65,47.84626,-54.09684
2022-01-13 15:39:00+00:00,229.8931,3.36,12.65,47.84626,-54.09684
2022-01-13 15:49:00+00:00,229.7598,3.37,12.65,47.84626,-54.09684
2022-01-13 15:59:00+00:00,225.7698,3.37,12.65,47.84626,-54.09684
2022-01-13 16:09:00+00:00,228.2531,3.38,12.65,47.84626,-54.09684
2022-01-13 16:19:00+00:00,231.9381,3.38,12.65,47.84626,-54.09684
2022-01-13 16:29:00+00:00,231.3981,3.34,12.65,47.84626,-54.09684
2022-01-13 16:39:00+00:00,234.0781,3.3,12.65,47.84626,-54.09684
2022-01-13 16:49:00+00:00,238.4798,3.3,12.65,47.84626,-54.09684
2022-01-13 16:59:00+00:00,238.9664,3.3,12.65,47.84626,-54.09684
2022-01-13 17:09:00+00:00,239.5697,3.3,12.65,47.84626,-54.09684
2022-01-13 17:19:00+00:00,245.4281,3.3,12.65,47.84626,-54.09684
2022-01-13 17:29:00+00:00,251.1348,3.29,12.65,47.84626,-54.09684
2022-01-13 17:39:00+00:00,252.9014,3.28,12.65,47.84626,-54.09684
2022-01-13 17:49:00+00:00,254.5081,3.27,12.65,47.84626,-54.09684
2022-01-13 17:59:00+00:00,258.4248,3.25,12.65,47.84626,-54.09684
2022-01-13 18:09:00+00:00,264.3597,3.22,12.65,47.84626,-54.09684
2022-01-13 18:19:00+00:00,267.4698,3.2,12.65,47.84626,-54.09684
2022-01-13 18:29:00+00:00,268.1764,3.2,12.65,47.84626,-54.09684
2022-01-13 18:39:00+00:00,270.3031,3.21,12.65,47.84626,-54.09684
2022-01-13 18:49:00+00:00,277.158,3.2,12.65,47.84626,-54.09684
2022-01-13 18:59:00+00:00,283.7364,3.23,12.65,47.84626,-54.09684
2022-01-13 19:09:00+00:00,286.3014,3.2,12.65,47.84626,-54.09684
2022-01-13 19:19:00+00:00,288.5147,3.2,12.57,47.84626,-54.09684
2022-01-13 19:29:00+00:00,292.0447,3.2,12.57,47.84626,-54.09684
2022-01-13 19:39:00+00:00,292.2964,3.2,12.57,47.84626,-54.09684
2022-01-13 19:49:00+00:00,291.5647,3.2,12.57,47.84626,-54.09684
2022-01-13 19:59:00+00:00,293.7881,3.19,12.57,47.84626,-54.09684
2022-01-13 20:09:00+00:00,296.8897,3.18,12.57,47.84626,-54.09684
2022-01-13 20:19:00+00:00,298.5047,3.13,12.57,47.84626,-54.09684
2022-01-13 20:29:00+00:00,299.7797,3.1,12.57,47.84626,-54.09684
2022-01-13 20:39:00+00:00,300.0214,3.1,12.57,47.84626,-54.09684
2022-01-13 20:49:00+00:00,301.7814,3.1,12.57,47.84626,-54.09684
2022-01-13 20:59:00+00:00,304.9996,3.1,12.57,47.84626,-54.09684
2022-01-13 21:09:00+00:00,302.9346,3.1,12.57,47.84626,-54.09684
2022-01-13 21:19:00+00:00,302.043,3.1,12.57,47.84626,-54.09684
2022-01-13 21:29:00+00:00,306.888,3.1,12.57,47.84626,-54.09684
2022-01-13 21:39:00+00:00,307.2664,3.1,12.57,47.84626,-54.09684
2022-01-13 21:49:00+00:00,303.7914,3.1,12.57,47.84626,-54.09684
2022-01-13 21:59:00+00:00,303.5646,3.1,12.57,47.84626,-54.09684
2022-01-13 22:09:00+00:00,307.5063,3.1,12.57,47.84626,-54.09684
2022-01-13 22:19:00+00:00,307.7247,3.1,12.57,47.84626,-54.09684
2022-01-13 22:29:00+00:00,305.0681,3.1,12.57,47.84626,-54.09684
2022-01-13 22:39:00+00:00,303.7881,3.1,12.57,47.84626,-54.09684
2022-01-13 22:49:00+00:00,301.2847,3.1,12.57,47.84626,-54.09684
2022-01-13 22:59:00+00:00,301.4847,3.1,12.57,47.84626,-54.09684
2022-01-13 23:09:00+00:00,297.4396,3.1,12.57,47.84626,-54.09684
2022-01-13 23:19:00+00:00,289.063,3.1,12.57,47.84626,-54.09684
2022-01-13 23:29:00+00:00,282.8914,3.1,12.57,47.84626,-54.09684
2022-01-13 23:39:00+00:00,283.2197,3.1,12.57,47.84626,-54.09684
2022-01-13 23:49:00+00:00,279.6848,3.1,12.57,47.84626,-54.09684
2022-01-13 23:59:00+00:00,269.6564,3.1,12.57,47.84626,-54.09684
